Tracking 21606 objects as of 24-Oct-2020
HD Live streaming from Space Station
objects crossing your sky now

COSMOS 2494 (SKRL 756)

Track COSMOS 2494 (SKRL 756) now!
10-day predictions
COSMOS 2494 (SKRL 756) is classified as:


NORAD ID: 39491
Int'l Code: 2013-078B
Perigee: 590.6 km
Apogee: 619.3 km
Inclination: 82.4 °
Period: 96.6 minutes
Semi major axis: 6975 km
RCS: Unknown
Launch date: December 28, 2013
Source: Commonwealth of Independent States (former USSR) (CIS)
Launch site: PLESETSK MISSILE AND SPACE COMPLEX (PKMTR)
aabbcc
Your satellite tracking list
Your tracking list is empty




NASA's NSSDC Master Catalog

Two Line Element Set (TLE):
1 39491U 13078B   20298.50488293  .00000394  00000-0  38174-4 0  9998
2 39491  82.4170  84.6869 0020621 270.7540  89.1316 14.90041496370834
Source of the keplerian elements: AFSPC